FENGYUN 1C DEB

Satellite information

Favourite Embed

Satellite Type and Status

DEBRISIN ORBIT

Key statistics

Satellite FENGYUN 1C DEB at a glance.

Uptime

9664

Days in orbit

Revolutions

≈ 14.7

Per day

Orbit

SSO

Sun Synchronous Orbit

Inclination

99.1

Latest

Satellite identification and parameters

Extended collection of information and parameters for FENGYUN 1C DEB.

Object identification

Identified? True

Debris? True

Object name: FENGYUN 1C DEB

International designator: 1999-025BPE

Object number (NORAD): 31296

Object ID (CCSDS): 31296

Country: PEOPLES REPUBLIC OF CHINA (PRC)

Current information (Y/N): Y

RCS size: SMALL

Orbital parameters

Period: 98.148 minutes

Inclination: 99.0648 deg

SMA: 7048.243 km

Apoapsis: 690.891 km

Periapsis: 649.326 km

RAAN: 206.1713 deg

Eccentricy: 0.00294862

Argument of periapsis: 12.9268 deg

Mean anomaly: 347.2683 deg

Mean motion: 14.67173333 rev/day

Mean motion (dot): 0.00036088 rev/day2

B* drag term: 0.0063512087 1/REarth

Two-line elements (TLE)

Creation date: Oct. 24, 2025, 2:48 a.m.

Reference frame: TEME

Reference center: EARTH

Epoch: Oct. 23, 2025, 5:34 p.m. UTC

TLE line 0: 0 FENGYUN 1C DEB

TLE line 1: 1 31296U 99025BPE 25296.73215983 .00036088 00000-0 63512-2 0 9992

TLE line 2: 2 31296 99.0648 206.1713 0029486 12.9268 347.2683 14.67173333966154

Live tracking on map

Real-time ground track for satellite FENGYUN 1C DEB.

In-orbit conjunctions

A list of the most updated potential collisions computed for object FENGYUN 1C DEB.

Target Orbit TCA Probability of collision Miss distance Type
CZ-6A DEB LEO 2025-02-09 20:59:04 0.000133153 718.0 (m) DEBRIS
COSMOS 2251 DEB LEO 2024-11-14 15:30:36 0.0001488114 890.0 (m) DEBRIS

Associated space launch

Chinese polar orbiting meteorological satellite

FENGYUN 1C DEB was lifted into orbit during the mission ‘Long March 4B | Feng Yun 1C’, on board a Long March 4B space rocket.

The launch took place on May 10, 1999, 1:33 a.m. from Launch Complex 7.

For more information about the launch, click the button.

Launch to space Long March 4B | Feng Yun 1C
Long March 4B | Feng Yun 1C

Agency: N/A

Status: Launch Successful

Launch date: May 10, 1999, 1:33 a.m. UTC

Rocket: Long March 4B

Launch pad: Launch Complex 7

Location: Taiyuan Satellite Launch Center, People's Republic of China

...

Latest news about this satellite

There are no fresh news available about this satellite. Check back as we update our databases every day.


Newsletter sign-up

Weekly statistics, charts and insights to help you stay on top of the space industry.